• Em Portugal
  • Lista de países
  • Para 7 dias
  • Temperatura da água
  • Mapas de satélite
  • Mapa do tempo
  • Widgets de tempo
  • user-avatar
    Iniciar Sessão

    Previsão horária em Quipungo

    Hoje, 18 Fevereiro, Domingo

    Tempo Temperatura Precipitação Vento Pressão Humidade
    00:00 +19°C° 0,3 mm 2 m/s 652 mmHg 94%
    01:00 +20°C° 0,3 mm 1 m/s 652 mmHg 95%
    02:00 +20°C° 0,1 mm 1 m/s 652 mmHg 95%
    03:00 +20°C° 0,1 mm 1 m/s 652 mmHg 96%
    04:00 +19°C° 0,1 mm 1 m/s 652 mmHg 96%
    05:00 +20°C° 0 mm 1 m/s 652 mmHg 95%
    06:00 +18°C° 0 mm 0 m/s 652 mmHg 94%
    07:00 +18°C° 0 mm 0 m/s 652 mmHg 93%
    08:00 +21°C° 0 mm 0 m/s 653 mmHg 83%
    09:00 +23°C° 0 mm 0 m/s 654 mmHg 73%
    10:00 +28°C° 0 mm 1 m/s 654 mmHg 63%
    11:00 +29°C° 0,3 mm 1 m/s 654 mmHg 59%
    12:00 +30°C° 0,3 mm 1 m/s 654 mmHg 56%
    13:00 +30°C° 0,3 mm 2 m/s 653 mmHg 52%
    14:00 +30°C° 0,8 mm 1 m/s 652 mmHg 54%
    15:00 +29°C° 0,8 mm 1 m/s 652 mmHg 57%
    16:00 +29°C° 0,8 mm 1 m/s 651 mmHg 60%
    17:00 +27°C° 0,4 mm 1 m/s 651 mmHg 65%
    18:00 +25°C° 0,4 mm 1 m/s 651 mmHg 70%
    19:00 +24°C° 0,4 mm 1 m/s 651 mmHg 76%
    20:00 +23°C° 0,8 mm 2 m/s 651 mmHg 81%
    21:00 +21°C° 0,8 mm 2 m/s 652 mmHg 86%
    22:00 +20°C° 0,8 mm 2 m/s 652 mmHg 92%
    23:00 +20°C° 0,1 mm 2 m/s 652 mmHg 92%

    Amanhã, 19 Fevereiro, Segunda-feira

    Tempo Temperatura Precipitação Vento Pressão Humidade
    00:00 +20°C° 0,1 mm 2 m/s 652 mmHg 93%
    01:00 +21°C° 0,1 mm 1 m/s 652 mmHg 94%
    02:00 +20°C° 0,2 mm 1 m/s 652 mmHg 94%
    03:00 +20°C° 0,2 mm 1 m/s 651 mmHg 94%
    04:00 +20°C° 0,2 mm 1 m/s 651 mmHg 95%
    05:00 +20°C° 0,3 mm 1 m/s 652 mmHg 93%
    06:00 +21°C° 0,3 mm 1 m/s 652 mmHg 91%
    07:00 +21°C° 0,3 mm 1 m/s 653 mmHg 90%
    08:00 +23°C° 0,2 mm 1 m/s 653 mmHg 80%
    09:00 +25°C° 0,2 mm 1 m/s 653 mmHg 70%
    10:00 +27°C° 0,2 mm 1 m/s 654 mmHg 61%
    11:00 +28°C° 0 mm 2 m/s 654 mmHg 54%
    12:00 +30°C° 0 mm 2 m/s 654 mmHg 47%
    13:00 +31°C° 0 mm 2 m/s 653 mmHg 40%
    14:00 +31°C° 0 mm 2 m/s 653 mmHg 41%
    15:00 +31°C° 0 mm 2 m/s 652 mmHg 41%
    16:00 +31°C° 0 mm 1 m/s 652 mmHg 41%
    17:00 +29°C° 0,1 mm 1 m/s 652 mmHg 49%
    18:00 +26°C° 0,1 mm 1 m/s 652 mmHg 57%
    19:00 +24°C° 0,1 mm 1 m/s 651 mmHg 65%
    20:00 +23°C° 0,1 mm 2 m/s 652 mmHg 71%
    21:00 +21°C° 0,1 mm 2 m/s 652 mmHg 77%
    22:00 +21°C° 0,1 mm 2 m/s 653 mmHg 82%
    23:00 +20°C° 0 mm 2 m/s 652 mmHg 86%

    Depois de amanhã, 20 Fevereiro, Terça-feira

    Tempo Temperatura Precipitação Vento Pressão Humidade
    00:00 +20°C° 0 mm 2 m/s 652 mmHg 89%
    01:00 +19°C° 0 mm 2 m/s 652 mmHg 92%
    02:00 +20°C° 0,2 mm 1 m/s 652 mmHg 93%
    03:00 +20°C° 0,2 mm 1 m/s 651 mmHg 94%
    04:00 +20°C° 0,2 mm 1 m/s 651 mmHg 95%
    05:00 +20°C° 0 mm 1 m/s 651 mmHg 94%
    06:00 +20°C° 0 mm 1 m/s 652 mmHg 92%
    07:00 +21°C° 0 mm 1 m/s 652 mmHg 91%
    08:00 +23°C° 0 mm 1 m/s 653 mmHg 80%
    09:00 +25°C° 0 mm 1 m/s 653 mmHg 68%
    10:00 +27°C° 0 mm 2 m/s 654 mmHg 57%
    11:00 +28°C° 0,1 mm 2 m/s 654 mmHg 53%
    12:00 +30°C° 0,1 mm 2 m/s 653 mmHg 49%
    13:00 +31°C° 0,1 mm 2 m/s 653 mmHg 45%
    14:00 +30°C° 0,2 mm 2 m/s 652 mmHg 49%
    15:00 +30°C° 0,2 mm 2 m/s 652 mmHg 53%
    16:00 +29°C° 0,2 mm 2 m/s 651 mmHg 57%
    17:00 +27°C° 0,5 mm 2 m/s 651 mmHg 63%
    18:00 +25°C° 0,5 mm 2 m/s 651 mmHg 70%
    19:00 +24°C° 0,5 mm 2 m/s 651 mmHg 76%
    20:00 +23°C° 1,6 mm 2 m/s 652 mmHg 82%
    21:00 +21°C° 1,6 mm 2 m/s 652 mmHg 88%
    22:00 +20°C° 1,6 mm 2 m/s 653 mmHg 94%
    23:00 +20°C° 0,8 mm 2 m/s 652 mmHg 95%

    21 Fevereiro, Quarta-feira

    Tempo Temperatura Precipitação Vento Pressão Humidade
    00:00 +19°C° 0,8 mm 2 m/s 652 mmHg 95%
    01:00 +19°C° 0,8 mm 2 m/s 651 mmHg 96%
    02:00 +19°C° 0,4 mm 2 m/s 651 mmHg 96%
    03:00 +19°C° 0,4 mm 2 m/s 651 mmHg 96%
    04:00 +19°C° 0,4 mm 2 m/s 651 mmHg 96%
    05:00 +19°C° 0,2 mm 2 m/s 651 mmHg 95%
    06:00 +19°C° 0,2 mm 2 m/s 652 mmHg 95%
    07:00 +20°C° 0,2 mm 1 m/s 652 mmHg 94%
    08:00 +22°C° 0 mm 1 m/s 653 mmHg 85%
    09:00 +24°C° 0 mm 1 m/s 654 mmHg 75%
    10:00 +26°C° 0 mm 1 m/s 654 mmHg 65%
    11:00 +28°C° 0 mm 1 m/s 654 mmHg 61%
    12:00 +29°C° 0 mm 1 m/s 653 mmHg 56%
    13:00 +30°C° 0 mm 1 m/s 653 mmHg 52%
    14:00 +29°C° 0,1 mm 2 m/s 652 mmHg 57%
    15:00 +27°C° 0,1 mm 3 m/s 651 mmHg 62%
    16:00 +25°C° 0,1 mm 3 m/s 651 mmHg 67%
    17:00 +24°C° 0,2 mm 3 m/s 651 mmHg 73%
    18:00 +22°C° 0,2 mm 3 m/s 651 mmHg 78%
    19:00 +20°C° 0,2 mm 3 m/s 651 mmHg 84%
    20:00 +20°C° 0 mm 3 m/s 652 mmHg 85%
    21:00 +20°C° 0 mm 3 m/s 652 mmHg 87%
    22:00 +19°C° 0 mm 3 m/s 652 mmHg 88%
    23:00 +19°C° 0 mm 2 m/s 652 mmHg 89%

    22 Fevereiro, Quinta-feira

    Tempo Temperatura Precipitação Vento Pressão Humidade
    00:00 +19°C° 0 mm 2 m/s 652 mmHg 90%
    01:00 +19°C° 0 mm 2 m/s 652 mmHg 90%
    02:00 +19°C° 0 mm 2 m/s 651 mmHg 91%
    03:00 +18°C° 0 mm 2 m/s 651 mmHg 91%
    04:00 +18°C° 0 mm 2 m/s 651 mmHg 91%
    05:00 +18°C° 0 mm 2 m/s 651 mmHg 90%
    06:00 +18°C° 0 mm 2 m/s 652 mmHg 90%
    07:00 +18°C° 0 mm 2 m/s 652 mmHg 89%
    08:00 +20°C° 0 mm 2 m/s 652 mmHg 82%
    09:00 +23°C° 0 mm 2 m/s 653 mmHg 74%
    10:00 +25°C° 0 mm 2 m/s 653 mmHg 67%
    11:00 +27°C° 0 mm 2 m/s 653 mmHg 59%
    12:00 +28°C° 0 mm 2 m/s 653 mmHg 52%
    13:00 +30°C° 0 mm 1 m/s 653 mmHg 45%
    14:00 +30°C° 0 mm 2 m/s 652 mmHg 47%
    15:00 +29°C° 0 mm 2 m/s 651 mmHg 50%
    16:00 +29°C° 0 mm 2 m/s 651 mmHg 52%
    17:00 +27°C° 0,1 mm 2 m/s 650 mmHg 60%
    18:00 +25°C° 0,1 mm 2 m/s 650 mmHg 67%
    19:00 +23°C° 0,1 mm 2 m/s 650 mmHg 75%
    20:00 +21°C° 0 mm 2 m/s 650 mmHg 78%
    21:00 +20°C° 0 mm 2 m/s 650 mmHg 80%
    22:00 +20°C° 0 mm 2 m/s 651 mmHg 83%
    23:00 +19°C° 0,1 mm 2 m/s 650 mmHg 84%

    23 Fevereiro, Sexta-feira

    Tempo Temperatura Precipitação Vento Pressão Humidade
    00:00 +19°C° 0,1 mm 2 m/s 650 mmHg 85%
    01:00 +18°C° 0,1 mm 2 m/s 650 mmHg 87%
    02:00 +18°C° 0 mm 2 m/s 650 mmHg 88%
    03:00 +19°C° 0 mm 1 m/s 649 mmHg 89%
    04:00 +19°C° 0 mm 1 m/s 649 mmHg 89%
    05:00 +19°C° 0 mm 1 m/s 650 mmHg 89%
    06:00 +19°C° 0 mm 1 m/s 650 mmHg 88%
    07:00 +20°C° 0 mm 1 m/s 651 mmHg 87%
    08:00 +23°C° 0 mm 1 m/s 652 mmHg 76%
    09:00 +25°C° 0 mm 1 m/s 652 mmHg 65%
    10:00 +28°C° 0 mm 1 m/s 653 mmHg 53%
    11:00 +30°C° 0 mm 1 m/s 653 mmHg 49%
    12:00 +31°C° 0 mm 1 m/s 652 mmHg 45%
    13:00 +32°C° 0 mm 1 m/s 652 mmHg 41%
    14:00 +31°C° 0,1 mm 2 m/s 651 mmHg 47%
    15:00 +29°C° 0,1 mm 2 m/s 650 mmHg 53%
    16:00 +28°C° 0,1 mm 3 m/s 650 mmHg 59%
    17:00 +26°C° 0,4 mm 3 m/s 650 mmHg 66%
    18:00 +25°C° 0,4 mm 3 m/s 650 mmHg 73%
    19:00 +22°C° 0,4 mm 3 m/s 650 mmHg 80%
    20:00 +21°C° 0 mm 3 m/s 651 mmHg 82%
    21:00 +21°C° 0 mm 3 m/s 651 mmHg 84%
    22:00 +20°C° 0 mm 3 m/s 651 mmHg 86%
    23:00 +20°C° 0 mm 2 m/s 651 mmHg 88%
    Mostrar mais